Regional Weather Roundup
Issued by NWS Grand Forks, ND

Home | Current Version | Previous Version | Graphics & Text | Print | Product List | Glossary On
Versions: 1 2 3 4 5 6 7 8 9 10 11 12 13 14 15 16 17 18 19 20 21 22 23 24 25 26 27 28 29 30 31 32 33 34 35 36 37 38 39 40 41 42 43 44 45 46 47 48 49 50
000
ASUS43 KFGF 082031
RWRFGF
PRAIRIE TO PINES  WEATHER ROUNDUP
NATIONAL WEATHER SERVICE EASTERN NORTH DAKOTA/GRAND FORKS ND
200 PM CST THU DEC 08 2016

 **SATELLITE DATA USED TO AUGMENT SKY COVER AT AUTOMATED STATIONS**
 *****  WEATHER ACROSS EASTERN NORTH DAKOTA  *****

CITY           SKY/WX    TMP DP  RH WIND       PRES   REMARKS
GRAND FORKS    LGT SNOW  16   9  74 NW20      30.54S WCI  -1
GRAND FRKS AFB FLURRIES  14   8  76 N13       30.54S WCI  -1
DEVILS LAKE    FLURRIES   4  -1  80 W16       30.55S WCI -15
FARGO          LGT SNOW  16  10  77 NW17      30.54R VSB 1   WCI   0
WAHPETON ARPT  CLOUDY    14   9  79 NW20G25   30.54R WCI  -3
$$

 ***** WEATHER ACROSS CENTRAL AND WESTERN NORTH DAKOTA  *****

CITY           SKY/WX    TMP DP  RH WIND       PRES   REMARKS
BISMARCK       CLOUDY     4  -2  76 NW13      30.63S WCI -13
MINOT          MOSUNNY    1  -6  72 W15       30.60F WCI -18
JAMESTOWN      CLOUDY     4  -1  80 NW22      30.56S HAZE    WCI -18
MINOT AFB      SUNNY     -1  -7  74 NW18      30.59F WCI -22
GARRISON         N/A      2  -5  72 NW16      30.59F WCI -18
WILLISTON      SUNNY     -2 -10  69 NW10      30.64F WCI -19
DICKINSON      MOSUNNY   -1  -8  72 W16       30.54F WCI -21
HETTINGER      CLOUDY     1  -5  75 NW15      30.56F WCI -18
$$

 *****  OTHER AIRPORT OBSERVATIONS IN OUR AREA  *****

CITY           SKY/WX    TMP DP  RH WIND       PRES   REMARKS
WALHALLA         N/A     10  10 100 NW16      30.57R WCI  -7
GRAFTON AIRPOR LGT SNOW  14   9  79 NW14      30.57S WCI  -1
VALLEY CITY AR CLOUDY     7   1  78 NW22      30.56S WCI -14
CANDO          MOCLDY     5   0  78 NW13      30.58S WCI -12
CAVALIER APRT    N/A     14   7  73 NW15      30.56R WCI  -1
GWINNER        MOCLDY    12   7  79 NW20      30.55S WCI  -6
SHEYENNE NWR     N/A     12   4  70 NW14      29.95S WCI  -3
ROLLA          FLURRIES   1   0  92 NW16      30.53S WCI -18
 ***** THE ABOVE OBSERVATIONS ARE NON NWS ARE NOT QUALITY
       CONTROLLED AND MAY MIS-REPORT RAIN FOR SNOW...
$$

  *****  WEATHER ACROSS NORTHERN MINNESOTA  *****

CITY           SKY/WX    TMP DP  RH WIND       PRES   REMARKS
FLAG ISLAND    CLOUDY    16   9  73 NW28G33   30.43R WCI  -4
WARROAD        CLOUDY    18  10  73 NW15      30.45R WCI   3
ROSEAU         LGT SNOW  18  12  79 NW10      30.46R WCI   6
HALLOCK          N/A     16  10  79 NW15      30.53R WCI   1
THF RVR FALLS  PTSUNNY   17  12  80 NW13      30.49R WCI   4
BAUDETTE       CLOUDY    19   7  59 NW20G29   30.39R WCI   3
WASKISH        PTSUNNY   19  12  73 NW12      30.41R WCI   7
CROOKSTON      LGT SNOW  16  12  86 NW16      30.54R WCI   0
STEPHEN NDAWN    N/A     14  10  85 NW16        N/A  WCI  -2
GREENBUSH NDAW   N/A     16  12  86 NW15        N/A  WCI   1
$$
  *****  WEATHER ACROSS CENTRAL AND WEST MINNESOTA  *****

CITY           SKY/WX    TMP DP  RH WIND       PRES   REMARKS
FOSSTON        LGT SNOW  16  10  79 NW13      30.46R WCI   2
BEMIDJI        LGT SNOW  19  14  79 N13       30.40R WCI   6
PARK RAPIDS    MIX PCPN  18   9  68 NW12      30.39R WCI   5
ELBOW LAKE     LGT SNOW  13  10  86 NW21G28   30.50R WCI  -5
WADENA         FLURRIES  16   9  73 NW16      30.43R WCI   0
DETROIT LAKES  LGT SNOW  18  12  79 NW16G22   30.46S WCI   3
MOORHEAD       LGT SNOW  16  10  79 NW17G24   30.54R VSB 1   WCI   0
FERGUS FALLS   LGT SNOW  12   9  85 NW21      30.55R WCI  -6
MORRIS MN      LGT SNOW  16   9  73 NW23G31   30.49S WCI  -2
STAPLES        LGT SNOW  16  10  79 NW13      30.41R WCI   2
$$
  *****  WEATHER ELSEWHERE ACROSS MINNESOTA  *****

CITY           SKY/WX    TMP DP  RH WIND       PRES   REMARKS
DULUTH         CLOUDY    22  15  75 NW15G22   30.26R WCI   9
INTRNTL FALLS  CLOUDY    20  10  65 N14       30.34R WCI   7
ELY            FLURRIES  19  12  73 NW13G18   30.26R WCI   7
CLOQUET        FLURRIES  21  14  73 NW14G24   30.30R WCI   8
WHEATON        CLOUDY    16  10  79 W18       30.56S WCI  -1
BRAINERD       CLOUDY    20  11  68 NW14      30.38R WCI   7
HIBBING        CLOUDY    20  12  71 NW17      30.31R WCI   5
ALEXANDRIA     LGT SNOW  15   9  76 NW18      30.45R WCI  -2
SAINT CLOUD    CLOUDY    20  12  71 NW14G24   30.40R WCI   7
MINNEAPOLIS    FLURRIES  23  12  62 NW15      30.40R WCI  10
$$

  *****  WEATHER ACROSS SOUTH DAKOTA  *****

CITY           SKY/WX    TMP DP  RH WIND       PRES   REMARKS
SIOUX FALLS    MOSUNNY   19   8  62 NW21      30.54S WCI   3
BROOKINGS      CLOUDY    14   8  77 NW21G26   30.50S WCI  -4
WATERTOWN      CLOUDY    13   6  74 NW20      30.49F WCI  -5
HURON          SUNNY     16   6  65 NW15G25   30.60F WCI   1
SISSETON         N/A     15   7  70 N22G29    30.53S WCI  -3
ABERDEEN       MOSUNNY   15   4  61 NW18      30.59S WCI  -2
MITCHELL       SUNNY     19   5  54 NW17G23   30.62S WCI   4
PIERRE         CLOUDY     8   2  76 NW16      30.62F WCI -10
MOBRIDGE       SUNNY      5  -5  63 NW15      30.60F WCI -13
RAPID CITY     SUNNY     13  -4  46 NW3       30.51F
$$

  *****  SOME WEATHER IN NEARBY STATES *****

CITY           SKY/WX    TMP DP  RH WIND       PRES   REMARKS
GLASGOW MT     MOSUNNY    3  -5  69 VRB3      30.60F
GREAT FALLS MT PTSUNNY    1  -8  66 CALM      30.41F
CHEYENNE WY    SUNNY     10   3  73 S10       30.24F WCI  -4
SCOTTSBLUFF NE SUNNY     16  -3  43 E3        30.44F
OMAHA NE       MOSUNNY   24   8  50 NW15      30.59F WCI  11
DES MOINES IA  PTSUNNY   24  10  55 NW21G26   30.50S WCI   9
DAVENPORT IA   FLURRIES  21  13  71 W22G28    30.41R WCI   5
CHICAGO IL     FLURRIES  21  13  71 W14G22    30.30R WCI   8
EAU CLAIRE WI  CLOUDY    25  14  63 NW13      30.31R WCI  14
LA CROSSE WI   FLURRIES  26  16  65 NW14G24   30.34R WCI  14
$$

  *****  SOME NATIONAL WEATHER *****

CITY           SKY/WX    TMP DP  RH WIND       PRES   REMARKS
LA GUARDIA NY  CLOUDY    44  23  43 W14       29.89R
RALEIGH NC     PTSUNNY   50  18  28 VRB7G16   30.09R
ATLANTA GA     CLOUDY    46  22  38 N12       30.27R
NEW ORLEANS LA CLOUDY    51  42  71 N9        30.30F
OKLAHOMA CITY  MOSUNNY   32   6  33 N16       30.65F WCI  21
ALBUQUERQUE NM MOSUNNY   34  14  43 NW8       30.35F
SALT LAKE CITY CLOUDY    30   9  41 SE9       30.20F WCI  22
LOS ANGELES CA PTSUNNY   63  46  54 W12       30.23F
BOISE ID       LGT SNOW  24  21  88 E9        30.16F FOG     WCI  14
SEATTLE WA     PTSUNNY   36  10  34 E17G24    30.02F
$$

*** WEATHER ACROSS MANITOBA...SASKATCHEWAN AND ONTARIO ***
                ***ONTARIO***

CITY           SKY/WX    TMP DP  RH WIND       PRES   REMARKS
GERALDTON      SNOWSHWR  16  10  79 NW15G21   30.09R WCI   1
THUNDER BAY    FLURRIES  21  12  68 NW15G24   30.21R WCI   8
SIOUX LOOKOUT  SNOWSHWR  14   9  79 N9G17     30.30R DRFTSNOWWCI   2
TORONTO        PTSUNNY   30  16  55 W23G32    29.92R WCI  17
BIG TROUT LK   FLURRIES   9   5  85 NW12G20   30.31R WCI  -6
PICKLE LAKE    FLURRIES   7   3  85 NW6       30.25R WCI  -3
DRYDEN         FLURRIES  12   9  85 N10G17    30.33R WCI  -1
KENORA         FLURRIES  12   5  73 NW10G18   30.38R WCI  -1
$$
                *** MANITOBA***

CITY           SKY/WX    TMP DP  RH WIND       PRES   REMARKS
BRANDON        FLURRIES   7  -2  66 NW12G17   30.56F WCI  -9
DAUPHIN        FLURRIES   1  -4  78 NE7       30.60F WCI -11
ISLAND LAKE    NOT AVBL
PILOT MOUND      N/A      7   1  78 NW13        N/A  WCI  -9
THE PAS        FLURRIES  -2  -9  71 NW12      30.64S WCI -20
THOMPSON       PTCLDY    -9 -18  64 NW8       30.61F WCI -26
WINNIPEG       PTSUNNY    9   3  78 NW18      30.56R WCI -10
LYNN LAKE      CLEAR    -11 -17  77 NW6       30.65F WCI -25
CHURCHILL      LGT SNOW  -4  -8  84 NW23G31   30.54R BLWGSNOWWCI -29
GILLAM         PTCLDY    -9 -17  70 NW13      30.55S WCI -30
$$
                ***SASKATCHEWAN***

CITY           SKY/WX    TMP DP  RH WIND       PRES   REMARKS
ESTEVAN        FLURRIES   0  -6  78 W14G21    30.59F WCI -19
KINDERSLEY     CRYSTALS  -6 -11  77 NW6       30.61F WCI -18
LLOYDMINSTER   CRYSTALS  -8 -13  77 NW7       30.64F WCI -22
PRINCE ALBERT  CLOUDY    -6 -15  65 NW8       30.68F WCI -21
REGINA         MOSUNNY    0  -8  71 NW10      30.61F WCI -17
YORKTON        MOSUNNY    1  -6  71 W13       30.58S WCI -16
N. BATTLEFORD  SUNNY     -8 -17  65 NW10      30.70F WCI -26
LA RONGE       CRYSTALS  -8 -15  71 W8        30.72F WCI -23
SASKATOON      CRYSTALS  -2  -9  71 N7        30.68F WCI -16
SWIFT CURRENT  CLOUDY    -4  -8  84 NW10      30.54F WCI -21
$$
NOTE: THESE ARE AUTOMATED STATIONS WITH LIMITED QUALITY CONTROL
      "FAIR" INDICATES FEW OR NO CLOUDS BELOW 12,000 FEET WITH NO
      SIGNIFICANT WEATHER AND/OR OBSTRUCTIONS TO VISIBILITY.
      SKY/WX - SKY CONDITION AND SIGNIFICANT WEATHER.
      TMP - AIR TEMPERATURE.    DP   - DEWPOINT TEMPERATURE.
      RH  - RELATIVE HUMIDITY.  PRES - PRESSURE.
      HX  - HEAT INDEX.         WCI  - WIND CHILL INDEX.
$




USA.gov is the U.S. government's official web portal to all federal, state and local government web resources and services.